Location: Gulgong NSW 2852, Australia
(32.2976°S, 149.5548°E)
Time: 12:32:15
(UTC+11:00)

N. Korean satellite - Pass Details

Date: 11 December 2021
Orbit: 447 x 491 km, 97.3° (Epoch: 23 January)

Event Time Altitude Azimuth Distance (km) Brightness Sun altitude
Rises 04:58:45 0° 36° (NE) 2,492 10.2 -9.7°
Reaches altitude 10° 05:00:58 10° 49° (NE) 1,634 9.4 -9.3°
Maximum altitude 05:03:57 26° 107° (ESE) 971 9.0 -8.8°
Drops below altitude 10° 05:07:01 10° 165° (SSE) 1,680 10.1 -8.3°
Sets 05:09:19 0° 177° (S) 2,578 10.8 -7.9°
